Regional Weather Roundup
Issued by NWS Upton, NY

Current Version | Previous Version | Graphics & Text | Print | Product List | Glossary Off
Versions: 1 2 3 4 5 6 7 8 9 10 11 12 13 14 15 16 17 18 19 20 21 22 23 24 25 26 27 28 29 30 31 32 33 34 35 36 37 38 39 40 41 42 43 44 45 46 47 48 49 50
000 ASUS41 KOKX 291808 RWROKX REGIONAL WEATHER ROUNDUP NATIONAL WEATHER SERVICE NEW YORK NY 200 PM EDT THU SEP 29 2016 NOTE: "FAIR" INDICATES FEW OR NO CLOUDS BELOW 12,000 FEET WITH NO SIGNIFICANT WEATHER AND/OR OBSTRUCTIONS TO VISIBILITY. NYZ071-072-176-178-NJZ106-104-291900- NEW YORK CITY METRO AREA CITY SKY/WX TMP DP RH WIND PRES REMARKS Central Park CLOUDY 63 52 67 MISG 30.39F LaGuardia APRT CLOUDY 65 53 65 E18 30.36F Kennedy INTL CLOUDY 63 52 67 E15G26 30.37S Newark/Liberty CLOUDY 64 53 67 E12G21 30.37R Bronx Bot Gard N/A 63 50 63 NE15 30.38F Wall St Helipt CLOUDY 64 57 77 NE17G25 30.37R Teterboro CLOUDY 64 50 60 E15G23 30.35F $$ NYZ177-179-078>081-291900- LONG ISLAND NEW YORK CITY SKY/WX TMP DP RH WIND PRES REMARKS Farmingdale CLOUDY 62 52 69 E20G30 30.37F MacArthur/ISP CLOUDY 61 52 72 NE22G28 30.37F Shirley CLOUDY 61 52 72 NE8G17 30.39F Riverhead NOT AVBL Westhampton CLOUDY 61 51 70 NE16G26 30.40F Southampton N/A 61 54 77 NE14 30.36S Bridgehampton N/A 61 54 77 SE3 30.25F East Hampton CLOUDY 60 52 73 NE20G28 30.40S Montauk N/A 62 52 69 NE13G26 30.41F $$ NYZ052-065-067-291900- HUDSON VALLEY CITY SKY/WX TMP DP RH WIND PRES REMARKS White Plains FAIR 64 49 57 E13 30.37F Newburgh CLOUDY 66 50 55 E12G17 30.39F Montgomery CLOUDY 65 50 58 E10 30.37F Poughkeepsie FAIR 67 45 45 E13 30.37F Albany PTSUNNY 66 46 48 VRB3 30.43S $$ NJZ001-105-106-008-010-013-015-019>022-104-291900- NEW JERSEY CITY SKY/WX TMP DP RH WIND PRES REMARKS Newark/Liberty CLOUDY 64 53 67 E12G21 30.37R Teterboro CLOUDY 64 50 60 E15G23 30.35F Caldwell CLOUDY 62 52 69 E10G22 30.37S Morristown CLOUDY 61 54 77 E12G18 30.38R Somerville CLOUDY 62 54 74 VRB7 30.34R Linden NOT AVBL Sussex CLOUDY 60 53 77 NE10 30.37F Abdover N/A 59 52 77 VRB5 30.37S Trenton CLOUDY 60 58 92 E13 30.31F FOG Millville RAIN 64 64 100 E23G30 30.22F Atlantic City LGT RAIN 64 62 93 NE24G33 30.26F FOG Wrightstown LGT RAIN 61 60 96 NE14 30.28F FOG Toms River LGT RAIN 62 60 93 E15G21 30.33F FOG Belmar LGT RAIN 61 58 90 E20G29 30.34S $$ PAZ047>061-062-071-291900- EASTERN PENNSYLVANIA CITY SKY/WX TMP DP RH WIND PRES REMARKS Philadelphia CLOUDY 65 61 87 E20G29 30.27F Allentown CLOUDY 61 53 75 E21G26 30.33S Scranton CLOUDY 60 53 77 VRB6 30.33S $$ CTZ002-004>006-009-010-012-RIZ004-006-007-MAZ004-011-015-291900- SOUTHERN NEW ENGLAND IN CT CITY SKY/WX TMP DP RH WIND PRES REMARKS Bradley INTL PTSUNNY 64 46 52 NE14 30.44F Hartford FAIR 63 48 58 NE14G21 30.43F Danbury FAIR 64 47 53 E14G23 30.39F Wtrbury/Oxford MOSUNNY 63 45 51 MISG 30.41F Bridgeport FAIR 69 49 48 NE17 30.38F Meriden FAIR 67 48 50 NE8G24 30.41F New Haven PTSUNNY 68 49 50 E14 30.39F Chester FAIR 64 48 55 NE13G20 30.40F Groton FAIR 67 50 54 E18 30.40S Wilimantic PTSUNNY 64 49 57 NE14 30.44S IN RI CITY SKY/WX TMP DP RH WIND PRES REMARKS Providence PTSUNNY 61 48 62 NE16 30.45F Block Island CLOUDY 60 52 74 NE16G29 30.41 Westerly PTSUNNY 63 48 58 NE15G26 30.42S IN MA CITY SKY/WX TMP DP RH WIND PRES REMARKS Boston CLOUDY 58 49 72 NE20G25 30.49F Worcester FAIR 56 44 64 NE10G20 30.47S Westfield FAIR 65 45 48 NE6G16 30.44F Provincetown CLOUDY 59 52 77 NE16 30.47F Nantucket CLOUDY 61 53 75 NE24G32 30.40F $$ ANZ330-335-338-340-345-350-353-355-291900- COASTAL MARINE OBSERVATIONS STATION/POSITION TIME SKY/WX TEMP WIND PRES VSBY WAVE AIR SEA DIR/SP/G HT/PER (UTC) (F) (DEG/KT/KT) (MB) (MI) (FT/S) NY HARB ENTRANCE 1750 63 70 70/ 27/ 33 1026.8 10/ 8 20S FIRE ISLAND 1750 63 68 70/ 27/ 33 1026.4 10/ 8 GREAT SOUTH BAY 1730 61 66 60/ 19/ 23 N/A 23 SSW MONTAUK P 1750 61 65 60/ 27/ 31 1028.1 10/ 7 15 E BARNEGAT LI 1730 70 N/A 12/ 8 HUDSON CANYON 1650 65 69 1025.0 11/ 8 KINGS POINT 1736 62 71 1028.2 EXECUTION ROCKS 1745 64 80/ 19/ 27 N/A CENTRAL LI SOUND 1730 63 71 70/ 17/ 21 N/A 3/ 4 EASTERN LI SOUND NOT AVBL ROBBINS REEF 1736 62 70/ 21/ 25 1027.8 $$ >>>>>>>>>>>>>>>>>>>>>>>>>>>> KEY <<<<<<<<<<<<<<<<<<<<<<<<<<< > < > SKY/WX - Sky Condition/Present Weather < > TMP - Temperature in Fahrenheit < > DP - Dew Point in Fahrenheit < > RH - Relative Humidity in Percent < > WIND - Direction (from) and Speed in MPH < > PRES - Mean Sea Level Pressure (inches of Hg) < > WCI - Wind Chill Index < > VSB - VISIBILITY IN MILES < > HX - HEAT INDEX < > TC - TEMPERATURE IN CELSIUS < > VRB - VARIABLE WIND DIRECTION < > < >>>>>>>>>>>>>>>>>>>>>>>>>>>> KEY <<<<<<<<<<<<<<<<<<<<<<<<<<<

USA.gov is the U.S. government's official web portal to all federal, state and local government web resources and services.